Lexington Weather

Lexington, Massachusetts, USA

35°F
4/16/2021 9:12am 
  • Lexington Conditions: Light snow, Mist, Overcast
  • Temperature: 34.5°F / 1.4°CColder 4.2°F than last hour.
  • Dew Point: 33.3°FDecreased 4.1°Fsince last hour.
  • Relative Humidity: 95
  • Wind: Wind from N N 2 mph, 10-min avg: 1 mph, gust: 3 mph
  • Barometer: 29.48 inFalling 0.04  inHg/hr Falling Slowly
  • Visibility: 2 miles
  • Snow Today: 0.3 in
  •   

Regional Weather Roundup
for Boston / Norton, MA

        
000
ASUS41 KBOX 150004
RWRBOX

REGIONAL WEATHER ROUNDUP
NATIONAL WEATHER SERVICE BOSTON/NORTON MA
800 PM EDT WED APR 14 2021

NOTE:  "FAIR" INDICATES FEW OR NO CLOUDS BELOW 12,000 FEET WITH NO 
SIGNIFICANT WEATHER AND/OR OBSTRUCTIONS TO VISIBILITY.

MAZALL-150100-
EASTERN MASSACHUSETTS
  
CITY           SKY/WX    TMP DP  RH WIND       PRES   REMARKS
BOSTON         PTCLDY    49  37  63 E12       29.97R                  
6HR MIN TEMP:  48; 6HR MAX TEMP:  51;                                

BEVERLY        NOT AVBL                                               
LAWRENCE       CLEAR     47  36  65 VRB5      29.97R                  
BEDFORD        CLEAR     48  34  58 E9        29.94R                  
BLUE HILL        N/A     47  36  65 SE8       29.93S                  
NORWOOD        CLEAR     51  36  56 SE6       29.95R                  
MARSHFIELD     PTCLDY    45  39  81 SE5       29.98R                  
PLYMOUTH       CLEAR     44  36  73 SE5       29.97R                  
TAUNTON          N/A    N/A N/A N/A MISG      29.96R                  
NEW BEDFORD    MOCLDY    47  39  74 S5        29.97R                  
$$

MAZALL-150100-
CAPE COD AND THE ISLANDS
  
CITY           SKY/WX    TMP DP  RH WIND       PRES   REMARKS
FALMOUTH       CLEAR     43  37  81 SE6       29.98S                  
HYANNIS        CLEAR     45  38  76 S3        29.97S                  
CHATHAM        CLEAR     42  34  73 SE3       29.99S                  
PROVINCETOWN   CLEAR     42  37  82 S6        29.99R                  
NANTUCKET      CLEAR     39  35  86 E3        29.99R                  
MARTHAS VNYRD  CLEAR     44  40  85 SE5       29.98R                  
$$
 
MAZALL-150100-
CENTRAL AND WESTERN MASSACHUSETTS
  
CITY           SKY/WX    TMP DP  RH WIND       PRES   REMARKS
WORCESTER      MOCLDY    54  40  59 SE8       29.91F                  
6HR MIN TEMP:  54; 6HR MAX TEMP:  64;                                

FITCHBURG      PTCLDY    52  38  58 E7        29.93R                  
ORANGE         MOCLDY    60  44  55 SE7       29.89R                  
SPRINGFIELD    MOCLDY    58  42  56 SE7       29.87R                  
WESTFIELD      CLOUDY    61  43  51 S10       29.87R                  
NORTH ADAMS    CLOUDY    60  43  53 CALM      29.84S                  
PITTSFIELD     CLOUDY    61  39  44 CALM      29.84S                  
$$
 
RIZALL-150100-
RHODE ISLAND
  
CITY           SKY/WX    TMP DP  RH WIND       PRES   REMARKS
PROVIDENCE     MOCLDY    48  38  68 S8        29.96S                  
6HR MIN TEMP:  48; 6HR MAX TEMP:  58;                                

NEWPORT        PTCLDY    45  38  76 SE6       29.96F                  
BLOCK ISLAND   PTCLDY    44  39  82 SE8       29.96F                  
SMITHFIELD     CLEAR     46  38  73 VRB5      29.95S                  
WESTERLY       PTCLDY    44  40  85 E6        29.95F                  
$$
 
CTZALL-150100-
CONNECTICUT
  
CITY           SKY/WX    TMP DP  RH WIND       PRES   REMARKS
BRADLEY INTL   MOCLDY    59  43  55 S12       29.88S                  
6HR MIN TEMP:  59; 6HR MAX TEMP:  71;                                

HARTFORD       MOCLDY    56  43  61 S6        29.90S                  
BRIDGEPORT     MOCLDY    50  46  86 NE13      29.89F                  
DANBURY        CLOUDY    65  45  48 SW8       29.89S                  
GROTON         PTCLDY    46  41  82 SE9       29.94F                  
NEW HAVEN      PTCLDY    51  47  86 E10       29.91S                  
CHESTER        FAIR      46  45  93 VRB5G14   29.92F                  
MERIDEN        CLOUDY    54  44  69 S9        29.90S                  
WILLIMANTIC    CLEAR     51  41  68 S3        29.93F                  
OXFORD         CLOUDY    54  47  77 S7        29.90S                  
$$

MEZ002-015-021-024-NHZ003-005-008-011-012-014-VTZ005-008-150100-
NORTHERN NEW ENGLAND
  
CITY           SKY/WX    TMP DP  RH WIND       PRES   REMARKS
PORTLAND ME    CLEAR     43  39  86 S7        29.96S                  
6HR MIN TEMP:  43; 6HR MAX TEMP:  55;                                

BANGOR ME      CLEAR     50  28  42 CALM      29.93R                  
CONCORD NH     CLOUDY    52  38  58 SE7       29.92R                  
MANCHESTER NH  MOCLDY    54  37  52 S10       29.92R                  
NASHUA NH      PTCLDY    52  37  56 SE7       29.94R                  
PORTSMOUTH NH  PTCLDY    43  37  79 SE6       29.96F                  
JAFFREY NH     CLOUDY    54  40  59 SE3       29.90S                  
KEENE NH       MOCLDY    59  42  53 S9G16     29.88R                  
BURLINGTON VT  MOCLDY    62  35  36 N6        29.85S                  
MT. WASHINGTON PTCLDY    34  32  93 W12         N/A  WCI  25          
$$

NYZ052-076-150100-
EASTERN NEW YORK
  
CITY           SKY/WX    TMP DP  RH WIND       PRES   REMARKS
ALBANY         CLOUDY    62  39  42 NW3       29.83F                  
6HR MIN TEMP:  61; 6HR MAX TEMP:  69;                                

NEW YORK CITY  CLOUDY    63  49  60 SW14      29.89S                  
6HR MIN TEMP:  63; 6HR MAX TEMP:  71;                                

$$
 
ANZALL-150100-
MARINE OBSERVATIONS
  
STATION/POSITION TIME  TEMP    WIND        PRES    VSBY  WAVE
                       AIR SEA DIR/SP/G                  HT/PER
                 (UTC) (F)     (DEG/KT/KT) (MB)    (MI)  (FT/S)
BOSTON BUOY      2340   44 45  150/ 10/ 12 1015.6R
BUZZARDS BAY     2300          150/  8/  9 1016.0F
NANTUCKET SOUND  2340      47                N/A
MASS BAY-STELLWA 2304   44     160/ 12/ 14 1013.8F  1 7/8  5/ 8
ISLE OF SHOALS   2300   44     170/ 14/ 15 1014.1F
S OF BLOCK IS    2356      46                N/A           3/ 8
$$

......................KEY.........................
  SKY/WX - SKY CONDITION/PRESENT WEATHER
  TMP    - TEMPERATURE IN FAHRENHEIT
  DWPT   - DEWPOINT IN FAHRENHEIT
  RH     - RELATIVE HUMIDITY IN PERCENT
  WIND   - DIRECTION AND SPEED IN MPH
  PRES   - MEAN SEA LEVEL PRESSURE IN INCHES OF HG
  WCI    - WIND CHILL INDEX
  VSB    - VISIBILITY IN MILES
  HX     - HEAT INDEX
  TC     - TEMPERATURE IN CELSIUS
  VRB    - VARIABLE WIND DIRECTION
  N/A    - NOT AVAILABLE
  
      

Other recent Regional Weather Roundups

Fri Apr 16, 9:04am

Fri Apr 16, 8:04am

Fri Apr 16, 7:04am

Fri Apr 16, 6:04am

Fri Apr 16, 5:04am

Fri Apr 16, 4:04am

Fri Apr 16, 3:04am

Fri Apr 16, 2:04am

Fri Apr 16, 1:04am

Fri Apr 16, 12:04am

Thu Apr 15, 11:05pm

Thu Apr 15, 10:04pm

Thu Apr 15, 9:04pm

Thu Apr 15, 8:04pm

Thu Apr 15, 7:05pm

Thu Apr 15, 6:04pm

Thu Apr 15, 5:05pm

Thu Apr 15, 4:04pm

Thu Apr 15, 3:05pm

Thu Apr 15, 2:04pm

Thu Apr 15, 1:05pm

Thu Apr 15, 12:04pm

Thu Apr 15, 11:04am

Thu Apr 15, 10:05am

Thu Apr 15, 9:04am

Thu Apr 15, 8:04am

Thu Apr 15, 7:04am

Thu Apr 15, 6:04am

Thu Apr 15, 5:04am

Thu Apr 15, 4:04am

Thu Apr 15, 3:04am

Thu Apr 15, 2:04am

Thu Apr 15, 1:04am

Thu Apr 15, 12:04am

Wed Apr 14, 11:04pm

Wed Apr 14, 10:04pm

Wed Apr 14, 9:04pm

Wed Apr 14, 7:04pm

Wed Apr 14, 6:04pm

Wed Apr 14, 5:05pm

Wed Apr 14, 4:04pm

Wed Apr 14, 3:05pm

Wed Apr 14, 2:04pm

Wed Apr 14, 1:05pm

Wed Apr 14, 12:04pm

Wed Apr 14, 11:04am

Wed Apr 14, 10:04am

Wed Apr 14, 9:04am

Wed Apr 14, 8:04am

Wed Apr 14, 7:04am

Wed Apr 14, 6:04am

Wed Apr 14, 5:04am

Wed Apr 14, 4:04am

Wed Apr 14, 3:04am

Wed Apr 14, 2:04am

Wed Apr 14, 1:04am

Wed Apr 14, 12:04am

Tue Apr 13, 11:04pm

Tue Apr 13, 10:05pm

Tue Apr 13, 9:05pm

Tue Apr 13, 8:05pm

Tue Apr 13, 7:04pm

Tue Apr 13, 6:04pm

Tue Apr 13, 5:05pm

Tue Apr 13, 4:04pm

Tue Apr 13, 3:04pm

Tue Apr 13, 2:05pm

Tue Apr 13, 1:04pm

Tue Apr 13, 12:05pm

Tue Apr 13, 11:05am

Tue Apr 13, 10:04am

Tue Apr 13, 9:04am

Tue Apr 13, 8:04am

Tue Apr 13, 7:04am

Tue Apr 13, 6:04am

Tue Apr 13, 5:04am

Tue Apr 13, 4:04am

Tue Apr 13, 3:04am

Tue Apr 13, 2:04am

Tue Apr 13, 1:04am

Tue Apr 13, 12:05am

Mon Apr 12, 11:04pm

Mon Apr 12, 10:04pm

Mon Apr 12, 9:04pm

Mon Apr 12, 8:04pm

Mon Apr 12, 7:05pm

Mon Apr 12, 6:04pm

Mon Apr 12, 5:04pm

Mon Apr 12, 4:04pm

Mon Apr 12, 3:05pm

Mon Apr 12, 2:04pm

Mon Apr 12, 1:05pm

Mon Apr 12, 12:04pm

Mon Apr 12, 11:04am

Mon Apr 12, 10:04am

Mon Apr 12, 9:04am

Mon Apr 12, 8:04am

Mon Apr 12, 7:04am

Mon Apr 12, 6:04am

Mon Apr 12, 5:04am

Mon Apr 12, 4:04am

Mon Apr 12, 3:04am

Mon Apr 12, 2:04am

Mon Apr 12, 1:05am

Mon Apr 12, 12:04am

Sun Apr 11, 11:04pm

Sun Apr 11, 10:04pm

Sun Apr 11, 9:04pm

Sun Apr 11, 8:04pm

Sun Apr 11, 7:04pm

Sun Apr 11, 6:05pm

Sun Apr 11, 5:05pm

Sun Apr 11, 4:04pm

Sun Apr 11, 3:05pm

Sun Apr 11, 2:05pm

Sun Apr 11, 1:05pm

Sun Apr 11, 12:04pm

Sun Apr 11, 11:05am

Sun Apr 11, 10:05am

Sun Apr 11, 9:04am

Sun Apr 11, 8:04am

Sun Apr 11, 7:04am

Sun Apr 11, 6:04am

Sun Apr 11, 5:04am

Sun Apr 11, 4:04am

Sun Apr 11, 3:04am

Sun Apr 11, 2:04am

Sun Apr 11, 1:05am

Sun Apr 11, 12:04am

Sat Apr 10, 11:05pm

Sat Apr 10, 10:04pm

Sat Apr 10, 9:04pm

Sat Apr 10, 8:04pm

Sat Apr 10, 7:05pm

Sat Apr 10, 6:04pm

Sat Apr 10, 5:04pm

Sat Apr 10, 4:04pm

Sat Apr 10, 3:04pm

Sat Apr 10, 2:05pm

Sat Apr 10, 1:04pm

Sat Apr 10, 12:04pm

Sat Apr 10, 11:04am

Sat Apr 10, 10:04am

Sat Apr 10, 9:04am

Sat Apr 10, 8:04am

Sat Apr 10, 7:04am

Sat Apr 10, 6:04am

Sat Apr 10, 5:04am

Sat Apr 10, 4:04am

Sat Apr 10, 3:04am

Sat Apr 10, 2:04am

Sat Apr 10, 1:05am

Sat Apr 10, 12:04am

Fri Apr 9, 11:04pm

Fri Apr 9, 10:05pm

Fri Apr 9, 9:04pm

Fri Apr 9, 8:05pm

Fri Apr 9, 7:05pm

Fri Apr 9, 6:04pm

Fri Apr 9, 5:04pm

Fri Apr 9, 4:05pm

Fri Apr 9, 3:05pm

Fri Apr 9, 2:04pm

Fri Apr 9, 1:04pm

Fri Apr 9, 12:04pm

Fri Apr 9, 11:05am

Fri Apr 9, 10:04am

Fri Apr 9, 9:04am

Meta data:

ID: 40a9fdfe-9ea4-4296-a649-6c100e052e7a
Link: https://api.weather.gov/products/40a9fdfe-9ea4-4296-a649-6c100e052e7a